White Plains, CT

1:08 AM EST on December 10, 2019 (GMT -0500)
Westchester County

Weather History for KHPN - August, 2019

Change the Weather History Date:

Saturday, August 10, 2019

  Actual Average Record
Temperature  
Mean Temperature 70 °F -  
Max Temperature 79 °F 80 °F 93 °F (2001)
Min Temperature 61 °F 63 °F 55 °F (1989)
Cooling Degree Days 4    
Growing Degree Days 20 (Base 50)    
Moisture  
Dew Point 53 °F    
Average Humidity 55    
Maximum Humidity 81    
Minimum Humidity 39    
Precipitation  
Precipitation 0.00 in - - ()
Sea Level Pressure  
Sea Level Pressure 29.83 in    
Wind  
Wind Speed 8 mph (WNW)    
Max Wind Speed 17 mph    
Max Gust Speed 29 mph    
Visibility 10 miles    
Events      
Averages and records for this station are not official NWS values.
T = Trace of Precipitation, MM = Missing Value Source: NWS Daily Summary

Daily Weather History Graph

Daily Weather History Graph

Search for Another Location

Airport or City:

Astronomy

Aug. 10, 2019 Rise Set
Actual Time 5:59 AM EDT 8:00 PM EDT
Civil Twilight 5:29 AM EDT 8:30 PM EDT
Nautical Twilight 4:52 AM EDT 9:07 PM EDT
Astronomical Twilight 4:12 AM EDT 9:46 PM EDT
Moon 4:41 PM EDT 1:33 AM EDT
Length of Visible Light 15h 01m
Length of Day
14h 01m
Waxing Gibbous, 79% of the Moon is Illuminated
Aug 10
Waxing Gibbous
Aug 15
Full
Aug 23
Last Quarter
Aug 30
New
Sep 5
First Quarter

Hourly Weather History & Observations

Time (EDT) Temp. Dew Point Humidity Pressure Visibility Wind Dir Wind Speed Gust Speed Precip Events Conditions
12:56 AM 64.9 °F 57.0 °F 75% 29.79 in 10.0 mi Calm Calm - N/A   Partly Cloudy
1:56 AM 64.9 °F 54.0 °F 68% 29.80 in 10.0 mi NNW 11.5 mph - N/A   Partly Cloudy
2:56 AM 62.1 °F 54.0 °F 75% 29.80 in 10.0 mi NW 6.9 mph - N/A   Clear
3:56 AM 61.0 °F 55.0 °F 81% 29.80 in 10.0 mi NW 6.9 mph - N/A   Clear
4:56 AM 64.0 °F 54.0 °F 70% 29.80 in 10.0 mi West 6.9 mph - N/A   Scattered Clouds
5:56 AM 64.0 °F 53.1 °F 67% 29.81 in 10.0 mi West 8.1 mph - N/A   Clear
6:56 AM 64.9 °F 54.0 °F 68% 29.82 in 10.0 mi WNW 8.1 mph - N/A   Clear
7:56 AM 68.0 °F 55.9 °F 65% 29.82 in 10.0 mi WNW 10.4 mph - N/A   Clear
8:56 AM 71.1 °F 55.9 °F 59% 29.83 in 10.0 mi WNW 9.2 mph - N/A   Clear
9:56 AM 73.0 °F 54.0 °F 51% 29.83 in 10.0 mi WNW 11.5 mph 17.3 mph N/A   Clear
10:56 AM 75.0 °F 54.0 °F 48% 29.83 in 10.0 mi WNW 12.7 mph 20.7 mph N/A   Partly Cloudy
11:56 AM 75.9 °F 52.0 °F 43% 29.82 in 10.0 mi WNW 12.7 mph 28.8 mph N/A   Partly Cloudy
12:56 PM 77.0 °F 52.0 °F 42% 29.81 in 10.0 mi WNW 17.3 mph 21.9 mph N/A   Partly Cloudy
1:56 PM 78.1 °F 52.0 °F 40% 29.81 in 10.0 mi WNW 12.7 mph 20.7 mph N/A   Scattered Clouds
2:56 PM 78.1 °F 52.0 °F 40% 29.80 in 10.0 mi West 13.8 mph 19.6 mph N/A   Partly Cloudy
3:56 PM 78.1 °F 51.1 °F 39% 29.80 in 10.0 mi WNW 12.7 mph 24.2 mph N/A   Partly Cloudy
4:56 PM 78.1 °F 52.0 °F 40% 29.80 in 10.0 mi WNW 15.0 mph 23.0 mph N/A   Scattered Clouds
5:56 PM 77.0 °F 52.0 °F 42% 29.81 in 10.0 mi NW 12.7 mph - N/A   Scattered Clouds
6:56 PM 73.9 °F 54.0 °F 50% 29.83 in 10.0 mi NNW 11.5 mph - N/A   Scattered Clouds
7:56 PM 72.0 °F 50.0 °F 46% 29.86 in 10.0 mi NW 12.7 mph - N/A   Clear
8:56 PM 69.1 °F 48.0 °F 47% 29.89 in 10.0 mi NW 8.1 mph - N/A   Clear
9:56 PM 66.9 °F 48.0 °F 51% 29.91 in 10.0 mi NW 9.2 mph - N/A   Clear
10:56 PM 64.9 °F 50.0 °F 58% 29.92 in 10.0 mi Calm Calm - N/A   Clear
11:56 PM 63.0 °F 51.1 °F 65% 29.94 in 10.0 mi WNW 3.5 mph - N/A   Scattered Clouds